Hourly Weather Ryabiniha

Today, 19 April, Monday

Time Temperature Precipitation Wind Pressure Humidity
00:00 +4°C° 0 mm 3 mps 743 mmHg 76%
01:00 +3°C° 0 mm 3 mps 743 mmHg 81%
02:00 +3°C° 0 mm 3 mps 743 mmHg 86%
03:00 +3°C° 0 mm 3 mps 743 mmHg 89%
04:00 +2°C° 0 mm 3 mps 743 mmHg 92%
05:00 +2°C° 0 mm 3 mps 743 mmHg 94%
06:00 +3°C° 0 mm 3 mps 743 mmHg 91%
07:00 +4°C° 0 mm 3 mps 743 mmHg 87%
08:00 +4°C° 0 mm 4 mps 743 mmHg 84%
09:00 +5°C° 0 mm 4 mps 743 mmHg 81%
10:00 +5°C° 0 mm 4 mps 743 mmHg 78%
11:00 +6°C° 0 mm 4 mps 743 mmHg 75%
12:00 +6°C° 0 mm 4 mps 743 mmHg 72%
13:00 +6°C° 0 mm 4 mps 743 mmHg 69%
14:00 +7°C° 0 mm 4 mps 743 mmHg 66%
15:00 +7°C° 0 mm 4 mps 743 mmHg 64%
16:00 +7°C° 0 mm 4 mps 743 mmHg 62%
17:00 +8°C° 0 mm 3 mps 743 mmHg 60%
18:00 +7°C° 0 mm 3 mps 743 mmHg 62%
19:00 +7°C° 0 mm 3 mps 743 mmHg 65%
20:00 +5°C° 0 mm 3 mps 743 mmHg 67%
21:00 +4°C° 0 mm 3 mps 743 mmHg 69%
22:00 +4°C° 0 mm 3 mps 743 mmHg 72%
23:00 +3°C° 0 mm 3 mps 742 mmHg 74%

Tomorrow, 20 April, Tuesday

Time Temperature Precipitation Wind Pressure Humidity
00:00 +3°C° 0 mm 3 mps 742 mmHg 72%
01:00 +2°C° 0 mm 3 mps 742 mmHg 71%
02:00 +1°C° 0 mm 4 mps 742 mmHg 69%
03:00 +2°C° 0 mm 3 mps 742 mmHg 71%
04:00 +1°C° 0 mm 3 mps 741 mmHg 74%
05:00 0°C° 0 mm 3 mps 741 mmHg 76%
06:00 0°C° 0.1 mm 4 mps 741 mmHg 74%
07:00 0°C° 0.1 mm 4 mps 741 mmHg 73%
08:00 +1°C° 0.1 mm 4 mps 741 mmHg 71%
09:00 +1°C° 0 mm 4 mps 740 mmHg 70%
10:00 +3°C° 0 mm 4 mps 740 mmHg 69%
11:00 +3°C° 0 mm 5 mps 740 mmHg 68%
12:00 +3°C° 0 mm 5 mps 739 mmHg 69%
13:00 +3°C° 0 mm 5 mps 739 mmHg 70%
14:00 +5°C° 0 mm 5 mps 739 mmHg 71%
15:00 +5°C° 0 mm 5 mps 738 mmHg 71%
16:00 +3°C° 0 mm 5 mps 737 mmHg 71%
17:00 +3°C° 0 mm 5 mps 737 mmHg 70%
18:00 +3°C° 0.1 mm 4 mps 736 mmHg 79%
19:00 +1°C° 0.1 mm 4 mps 736 mmHg 87%
20:00 +1°C° 0.1 mm 3 mps 736 mmHg 95%
21:00 +1°C° 0.4 mm 3 mps 735 mmHg 96%
22:00 +1°C° 0.4 mm 3 mps 734 mmHg 97%
23:00 +1°C° 0.4 mm 2 mps 733 mmHg 98%

Day after tomorrow, 21 April, Wednesday

Time Temperature Precipitation Wind Pressure Humidity
00:00 0°C° 0.7 mm 3 mps 732 mmHg 97%
01:00 0°C° 0.7 mm 3 mps 731 mmHg 97%
02:00 0°C° 0.7 mm 3 mps 730 mmHg 97%
03:00 0°C° 1.2 mm 3 mps 729 mmHg 97%
04:00 0°C° 1.2 mm 3 mps 729 mmHg 98%
05:00 +1°C° 1.2 mm 2 mps 728 mmHg 98%
06:00 +1°C° 0.9 mm 2 mps 727 mmHg 98%
07:00 +1°C° 0.9 mm 2 mps 727 mmHg 98%
08:00 +2°C° 0.9 mm 1 mps 727 mmHg 99%
09:00 +2°C° 0.2 mm 1 mps 727 mmHg 98%
10:00 +2°C° 0.2 mm 1 mps 726 mmHg 97%
11:00 +2°C° 0.2 mm 1 mps 726 mmHg 96%
12:00 +2°C° 0 mm 2 mps 726 mmHg 94%
13:00 +2°C° 0 mm 2 mps 727 mmHg 92%
14:00 +2°C° 0 mm 3 mps 727 mmHg 89%
15:00 +1°C° 0 mm 3 mps 727 mmHg 90%
16:00 +1°C° 0 mm 3 mps 728 mmHg 91%
17:00 0°C° 0 mm 4 mps 728 mmHg 92%
18:00 +1°C° 0 mm 3 mps 728 mmHg 92%
19:00 +1°C° 0 mm 3 mps 729 mmHg 93%
20:00 +1°C° 0 mm 3 mps 729 mmHg 94%
21:00 +1°C° 0.1 mm 3 mps 730 mmHg 95%
22:00 +2°C° 0.1 mm 3 mps 730 mmHg 96%
23:00 +2°C° 0.1 mm 3 mps 730 mmHg 97%

22 April, Thursday

Time Temperature Precipitation Wind Pressure Humidity
00:00 +2°C° 0 mm 3 mps 730 mmHg 96%
01:00 +2°C° 0 mm 3 mps 731 mmHg 96%
02:00 +2°C° 0 mm 3 mps 731 mmHg 95%
03:00 +1°C° 0 mm 3 mps 731 mmHg 95%
04:00 +1°C° 0 mm 3 mps 731 mmHg 95%
05:00 +1°C° 0 mm 3 mps 732 mmHg 95%
06:00 +2°C° 0 mm 3 mps 732 mmHg 90%
07:00 +3°C° 0 mm 3 mps 732 mmHg 86%
08:00 +4°C° 0 mm 3 mps 733 mmHg 81%
09:00 +6°C° 0 mm 4 mps 733 mmHg 75%
10:00 +7°C° 0 mm 4 mps 733 mmHg 70%
11:00 +10°C° 0 mm 4 mps 734 mmHg 64%
12:00 +10°C° 0 mm 4 mps 734 mmHg 62%
13:00 +11°C° 0 mm 4 mps 734 mmHg 60%
14:00 +12°C° 0 mm 4 mps 734 mmHg 59%
15:00 +11°C° 0.2 mm 3 mps 734 mmHg 63%
16:00 +11°C° 0.2 mm 3 mps 734 mmHg 67%
17:00 +12°C° 0.2 mm 2 mps 734 mmHg 72%
18:00 +9°C° 0 mm 2 mps 734 mmHg 78%
19:00 +8°C° 0 mm 2 mps 735 mmHg 85%
20:00 +6°C° 0 mm 2 mps 735 mmHg 92%
21:00 +6°C° 0 mm 2 mps 735 mmHg 93%
22:00 +6°C° 0 mm 2 mps 734 mmHg 94%
23:00 +5°C° 0 mm 2 mps 734 mmHg 95%

23 April, Friday

Time Temperature Precipitation Wind Pressure Humidity
00:00 +5°C° 0 mm 2 mps 734 mmHg 95%
01:00 +5°C° 0 mm 2 mps 734 mmHg 96%
02:00 +4°C° 0 mm 2 mps 734 mmHg 96%
03:00 +4°C° 0 mm 2 mps 734 mmHg 96%
04:00 +4°C° 0 mm 2 mps 734 mmHg 95%
05:00 +4°C° 0 mm 2 mps 734 mmHg 95%
06:00 +5°C° 0 mm 3 mps 733 mmHg 90%
07:00 +7°C° 0 mm 4 mps 733 mmHg 85%
08:00 +9°C° 0 mm 5 mps 733 mmHg 80%
09:00 +9°C° 0.1 mm 5 mps 733 mmHg 79%
10:00 +10°C° 0.1 mm 5 mps 732 mmHg 77%
11:00 +10°C° 0.1 mm 5 mps 732 mmHg 76%
12:00 +10°C° 0.3 mm 5 mps 732 mmHg 76%
13:00 +12°C° 0.3 mm 4 mps 731 mmHg 76%
14:00 +12°C° 0.3 mm 4 mps 731 mmHg 75%
15:00 +10°C° 1.7 mm 3 mps 731 mmHg 81%
16:00 +7°C° 1.7 mm 3 mps 731 mmHg 86%
17:00 +5°C° 1.7 mm 2 mps 731 mmHg 92%
18:00 +5°C° 0.6 mm 2 mps 731 mmHg 93%
19:00 +4°C° 0.6 mm 2 mps 731 mmHg 94%
20:00 +4°C° 0.6 mm 2 mps 732 mmHg 95%
21:00 +4°C° 0 mm 2 mps 732 mmHg 94%
22:00 +3°C° 0 mm 2 mps 732 mmHg 94%
23:00 +2°C° 0 mm 3 mps 732 mmHg 93%

24 April, Saturday

Time Temperature Precipitation Wind Pressure Humidity
00:00 +3°C° 0 mm 2 mps 731 mmHg 93%
01:00 +2°C° 0 mm 2 mps 731 mmHg 94%
02:00 +2°C° 0 mm 2 mps 731 mmHg 95%
03:00 +2°C° 0 mm 2 mps 731 mmHg 95%
04:00 +1°C° 0 mm 2 mps 731 mmHg 95%
05:00 +1°C° 0 mm 2 mps 731 mmHg 95%
06:00 +2°C° 0 mm 2 mps 730 mmHg 90%
07:00 +3°C° 0 mm 2 mps 730 mmHg 85%
08:00 +4°C° 0 mm 2 mps 730 mmHg 80%
09:00 +4°C° 0.2 mm 3 mps 730 mmHg 78%
10:00 +4°C° 0.2 mm 3 mps 730 mmHg 76%
11:00 +5°C° 0.2 mm 4 mps 729 mmHg 75%
12:00 +4°C° 0.3 mm 4 mps 730 mmHg 74%
13:00 +4°C° 0.3 mm 4 mps 730 mmHg 73%
14:00 +4°C° 0.3 mm 4 mps 730 mmHg 73%
15:00 +3°C° 0.2 mm 4 mps 730 mmHg 79%
16:00 +1°C° 0.2 mm 4 mps 730 mmHg 86%
17:00 0°C° 0.2 mm 4 mps 730 mmHg 92%
18:00 0°C° 0.1 mm 4 mps 731 mmHg 90%
19:00 0°C° 0.1 mm 4 mps 731 mmHg 89%
20:00 -1°C° 0.1 mm 4 mps 731 mmHg 87%
21:00 -1°C° 0 mm 4 mps 732 mmHg 88%
22:00 -2°C° 0 mm 4 mps 732 mmHg 88%
23:00 -1°C° 0 mm 3 mps 732 mmHg 89%
Show more